TimeMST,TemperatureF,Dew PointF,Humidity,Sea Level PressureIn,VisibilityMPH,Wind Direction,Wind SpeedMPH,Gust SpeedMPH,PrecipitationIn,Events,Conditions,WindDirDegrees,DateUTC
12:53 AM,48.9,16.0,27,29.64,10.0,West,18.4,-,N/A,,Clear,260,2012-12-09 07:53:00
1:41 AM,51.8,15.8,24,29.82,10.0,North,10.4,42.6,N/A,,Clear,10,2012-12-09 08:41:00
1:53 AM,39.9,27.0,60,29.77,7.0,NE,28.8,34.5,N/A,,Clear,40,2012-12-09 08:53:00
2:53 AM,37.9,27.0,65,29.82,10.0,NE,15.0,-,N/A,,Clear,50,2012-12-09 09:53:00
3:53 AM,35.1,24.1,64,29.85,10.0,NE,9.2,-,N/A,,Clear,50,2012-12-09 10:53:00
4:53 AM,33.1,18.0,54,29.90,10.0,NE,16.1,-,N/A,,Clear,50,2012-12-09 11:53:00
5:53 AM,30.9,16.0,54,29.93,10.0,ENE,9.2,-,N/A,,Clear,60,2012-12-09 12:53:00
6:53 AM,28.0,14.0,56,29.96,10.0,NE,8.1,-,N/A,,Clear,50,2012-12-09 13:53:00
7:53 AM,32.0,14.0,48,29.98,10.0,ENE,6.9,-,N/A,,Clear,70,2012-12-09 14:53:00
8:53 AM,35.1,12.9,40,30.01,10.0,NE,20.7,28.8,N/A,,Clear,50,2012-12-09 15:53:00
9:53 AM,37.0,12.0,36,30.03,10.0,NE,17.3,24.2,N/A,,Clear,40,2012-12-09 16:53:00
10:53 AM,39.0,12.9,34,30.02,10.0,East,16.1,-,N/A,,Clear,80,2012-12-09 17:53:00
11:53 AM,41.0,12.9,32,29.97,10.0,NE,21.9,27.6,N/A,,Clear,50,2012-12-09 18:53:00
12:53 PM,41.0,12.0,31,29.96,10.0,NE,21.9,29.9,N/A,,Clear,50,2012-12-09 19:53:00
1:53 PM,36.0,14.0,41,30.01,8.0,NNE,29.9,40.3,N/A,,Scattered Clouds,30,2012-12-09 20:53:00
2:53 PM,33.1,12.0,42,30.06,10.0,NNE,27.6,33.4,N/A,,Overcast,30,2012-12-09 21:53:00
3:53 PM,30.9,12.9,47,30.11,10.0,NE,23.0,33.4,N/A,,Overcast,50,2012-12-09 22:53:00
4:28 PM,28.4,17.6,64,30.11,2.5,NNE,19.6,-,0.00,Snow,Light Snow,30,2012-12-09 23:28:00
4:37 PM,28.4,21.2,74,30.12,1.5,NNE,16.1,-,0.00,Snow,Light Snow,20,2012-12-09 23:37:00
4:53 PM,27.0,21.9,81,30.17,1.2,NNE,19.6,-,0.00,Snow,Light Snow,30,2012-12-09 23:53:00
5:09 PM,26.6,21.2,80,30.14,0.8,NNE,13.8,-,0.00,Snow,Light Snow,20,2012-12-10 00:09:00
5:32 PM,26.6,21.2,80,30.16,1.0,North,19.6,-,0.00,Snow,Light Snow,360,2012-12-10 00:32:00
5:53 PM,26.1,21.0,81,30.22,0.8,NNE,21.9,-,0.00,Snow,Light Snow,20,2012-12-10 00:53:00
6:14 PM,24.8,21.2,86,30.18,1.0,NNE,16.1,-,0.01,Snow,Light Snow,20,2012-12-10 01:14:00
6:42 PM,24.8,19.4,80,30.19,1.2,NNE,23.0,26.5,0.01,Snow,Light Snow,30,2012-12-10 01:42:00
6:51 PM,24.8,19.4,80,30.20,1.0,NNE,17.3,-,0.01,Snow,Light Snow,30,2012-12-10 01:51:00
6:53 PM,24.1,19.9,84,30.27,1.0,NNE,17.3,-,0.01,Snow,Light Snow,30,2012-12-10 01:53:00
7:08 PM,24.8,19.4,80,30.20,1.8,NNE,16.1,-,0.00,Snow,Light Snow,20,2012-12-10 02:08:00
7:30 PM,24.8,19.4,80,30.20,2.0,NNE,9.2,-,0.00,Snow,Light Snow,20,2012-12-10 02:30:00
7:53 PM,25.0,19.0,78,30.28,4.0,NNE,9.2,19.6,0.00,Snow,Light Snow,20,2012-12-10 02:53:00
8:00 PM,24.8,19.4,80,30.22,5.0,NNE,6.9,-,0.00,Snow,Light Snow,20,2012-12-10 03:00:00
8:53 PM,21.9,14.0,72,30.29,10.0,NNW,5.8,-,0.00,,Overcast,340,2012-12-10 03:53:00
9:53 PM,21.9,15.1,75,30.29,10.0,NW,6.9,-,N/A,,Overcast,310,2012-12-10 04:53:00
10:53 PM,19.0,12.9,77,30.30,10.0,NW,5.8,-,N/A,,Overcast,310,2012-12-10 05:53:00
11:53 PM,16.0,12.0,84,30.26,10.0,West,4.6,-,N/A,,Partly Cloudy,280,2012-12-10 06:53:00